Simultaneous Nadir Overpasses (SNOs) Predictions

Prediction of SNOs between GOES-15 and NPP Satellite Orbit:

Table of predicted SNOs for the next 14.0 days since TLE Epoch: 2/10/2024
Index Date Time (GOES-15) GOES-15 Lat,Lon NPP Lat,Lon Distance(km) Time Diff (sec)
1 02/10/2024 09:27:56 -0.01, 61.56 -0.56, 59.12 278.61 80
2 02/11/2024 09:11:52 -0.00, 61.55 0.48, 63.65 239.31 80
3 02/12/2024 21:33:39 0.00, 61.44 0.70, 58.38 349.55 80
4 02/13/2024 21:12:15 -0.00, 61.43 -0.35, 62.90 168.01 80
5 02/15/2024 09:34:10 0.00, 61.51 -0.85, 57.61 444.18 80
6 02/16/2024 09:18:04 -0.00, 61.50 0.14, 62.15 73.45 80
7 02/18/2024 21:18:27 0.00, 61.39 -0.02, 61.40 2.45 80
8 02/21/2024 09:21:37 0.00, 61.48 -0.17, 60.64 95.10 80
9 02/22/2024 09:05:32 0.01, 61.47 0.83, 65.18 422.06 80
10 02/23/2024 21:27:19 -0.01, 61.37 0.33, 59.91 167.44 80
